Regional Weather Roundup
Issued by NWS

Home | Current Version | Previous Version | Graphics & Text | Print | Product List | Glossary Off
Versions: 1 2 3 4 5 6 7 8 9 10 11 12 13 14 15 16 17 18 19 20 21 22 23 24 25 26 27 28 29 30 31 32 33 34 35 36 37 38 39 40 41 42 43 44 45 46 47 48 49 50

000
ASUS43 KOAX 080710
RWRNE

WEATHER ROUNDUP FOR NEBRASKA
NATIONAL WEATHER SERVICE OMAHA NE
200 AM CDT WED JUL 08 2015

NOTES: SATELLITE DATA IS BEING USED TO AUGMENT CLOUD COVER ABOVE
       12000 FEET.
       "FAIR" INDICATES FEW OR NO CLOUDS BELOW 12,000 FEET WITH NO
       SIGNIFICANT WEATHER AND/OR OBSTRUCTIONS TO VISIBILITY.

  * THESE STATIONS DO NOT REPORT WEATHER SUCH AS RAIN...SNOW OR FOG.

NEZ001>004-019>022-054>056-080800-
NEBRASKA PANHANDLE

CITY           SKY/WX    TMP DP  RH WIND       PRES   REMARKS
SCOTTSBLUFF    CLOUDY    62  51  67 E9        30.05F
ALLIANCE       CLOUDY    62  52  69 S10       30.06F
CHADRON        PTCLDY    64  50  60 S14G21    30.01F
KIMBALL          N/A    N/A N/A N/A MISG        N/A
SIDNEY         CLOUDY    60  49  66 SE7       30.09F
$$

NEZ057>060-069>072-079>082-080800-
SOUTHWEST NEBRASKA

CITY           SKY/WX    TMP DP  RH WIND       PRES   REMARKS
NORTH PLATTE   CLOUDY    62  51  67 S8        30.08F
IMPERIAL       CLOUDY    63  48  58 SE12      30.07F
LEXINGTON      PTCLDY    58  54  85 SE6       30.09F
MCCOOK         MOCLDY    60  50  69 CALM      30.08S
OGALLALA       CLOUDY    63  52  67 SE8       30.07F
$$

NEZ005>010-023>029-035>040-094-080800-
NORTH CENTRAL NEBRASKA

CITY           SKY/WX    TMP DP  RH WIND       PRES   REMARKS
VALENTINE      PTCLDY    60  52  74 S7        30.05F
AINSWORTH      PTCLDY    57  52  82 SE9       30.06F
BROKEN BOW     PTCLDY    56  52  86 CALM      30.09F
O`NEILL        PTCLDY    55  52  88 S5        30.09F
ORD            PTCLDY    51  48  89 CALM      30.08F
THEDFORD       CLOUDY    61  56  83 SE3       30.08F
$$

NEZ041-046>049-061>064-073>077-083>087-080800-
SOUTH CENTRAL NEBRASKA

CITY           SKY/WX    TMP DP  RH WIND       PRES   REMARKS
GRAND ISLAND   CLEAR     55  51  86 CALM      30.10F
AURORA         CLEAR     54  53  94 E6        30.09F
HASTINGS       PTCLDY    55  50  83 E3        30.10S
HEBRON         CLEAR     54  51  90 CALM      30.09S
HOLDREGE       PTCLDY    54  50  85 SE6       30.09S
KEARNEY *      PTCLDY    54  48  82 E3        30.10S
YORK           CLEAR     54  54 100 N5        30.10S
$$

NEZ011>018-030>034-042>045-080800-
NORTHEAST NEBRASKA

CITY           SKY/WX    TMP DP  RH WIND       PRES   REMARKS
NORFOLK        CLEAR     53  51  93 SE5       30.09F
ALBION         PTCLDY    50  47  92 CALM      30.10S
BLAIR          CLEAR     56  50  82 NE5       30.09S
FREMONT        PTCLDY    57  53  85 CALM      30.10S
TEKAMAH        PTCLDY    53  50  89 CALM      30.09F
WAYNE          PTCLDY    49  48  95 CALM      30.10F
$$

NEZ050>053-065>068-078-088>093-080800-
SOUTHEAST NEBRASKA

CITY           SKY/WX    TMP DP  RH WIND       PRES   REMARKS
LINCOLN        CLEAR     55  52  89 N3        30.09F
OMAHA EPPLEY   CLEAR     61  52  72 E3        30.09S
BEATRICE       CLEAR     57  53  85 NE3       30.08S
FALLS CITY     CLOUDY    62  57  83 NE5       30.06F
NEBRASKA CITY  PTCLDY    57  51  81 NE3       30.08F
PLATTSMOUTH    CLEAR     57  51  80 E5        30.08F
$$

NEZ044-045-051>053-067-080800-
OMAHA AREA

CITY           SKY/WX    TMP DP  RH WIND       PRES   REMARKS
OMAHA EPPLEY   CLEAR     61  52  72 E3        30.09S
BLAIR          CLEAR     56  50  82 NE5       30.09S
FREMONT        PTCLDY    57  53  85 CALM      30.10S
MILLARD        CLEAR     57  54  91 CALM      30.08F
OFFUTT AFB     CLEAR     56  53  90 E3        30.08S
PLATTSMOUTH    CLEAR     57  51  80 E5        30.08F
WAHOO          FAIR      56  53  91 N3        30.09S
$$



USA.gov is the U.S. government's official web portal to all federal, state and local government web resources and services.